When you browse on this site, cookies collect data to enhance your experience and personalize the content and advertising you see.
Visit our Privacy Policy to learn more. By continuing to use the site, you agree to this use of cookies and data.
  • In Sweden
  • List of Countries
  • For 7 days
  • Water Temperature
  • Weather Map
  • Weather Widgets
  • user-avatar
    Login

    Hourly Weather Khammam

    Today, 26 February, Wednesday

    Time Temperature Precipitation Wind Pressure Humidity
    00:00 +24°C° 0 mm 1 mps 748 mmHg 79%
    01:00 +24°C° 0 mm 1 mps 748 mmHg 81%
    02:00 +23°C° 0 mm 1 mps 748 mmHg 84%
    03:00 +23°C° 0 mm 1 mps 748 mmHg 85%
    04:00 +23°C° 0 mm 1 mps 748 mmHg 86%
    05:00 +21°C° 0 mm 0 mps 748 mmHg 93%
    06:00 +24°C° 0 mm 1 mps 749 mmHg 86%
    07:00 +26°C° 0 mm 1 mps 749 mmHg 79%
    08:00 +27°C° 0 mm 1 mps 750 mmHg 73%
    09:00 +29°C° 0 mm 1 mps 750 mmHg 63%
    10:00 +31°C° 0 mm 1 mps 750 mmHg 54%
    11:00 +33°C° 0 mm 1 mps 750 mmHg 46%
    12:00 +34°C° 0 mm 1 mps 749 mmHg 41%
    13:00 +35°C° 0 mm 1 mps 748 mmHg 35%
    14:00 +36°C° 0 mm 1 mps 747 mmHg 29%
    15:00 +36°C° 0 mm 1 mps 747 mmHg 29%
    16:00 +35°C° 0 mm 1 mps 747 mmHg 28%
    17:00 +35°C° 0 mm 1 mps 746 mmHg 28%
    18:00 +34°C° 0 mm 2 mps 747 mmHg 31%
    19:00 +31°C° 0 mm 2 mps 748 mmHg 34%
    20:00 +29°C° 0 mm 2 mps 749 mmHg 36%
    21:00 +28°C° 0 mm 2 mps 749 mmHg 49%
    22:00 +26°C° 0 mm 2 mps 749 mmHg 61%
    23:00 +25°C° 0 mm 2 mps 749 mmHg 74%

    Tomorrow, 27 February, Thursday

    Time Temperature Precipitation Wind Pressure Humidity
    00:00 +25°C° 0 mm 2 mps 748 mmHg 80%
    01:00 +24°C° 0 mm 1 mps 748 mmHg 86%
    02:00 +23°C° 0 mm 1 mps 748 mmHg 92%
    03:00 +23°C° 0 mm 1 mps 748 mmHg 93%
    04:00 +23°C° 0 mm 1 mps 748 mmHg 93%
    05:00 +23°C° 0 mm 1 mps 748 mmHg 94%
    06:00 +24°C° 0 mm 1 mps 749 mmHg 86%
    07:00 +26°C° 0 mm 1 mps 750 mmHg 79%
    08:00 +27°C° 0 mm 1 mps 750 mmHg 71%
    09:00 +29°C° 0 mm 2 mps 750 mmHg 58%
    10:00 +32°C° 0 mm 2 mps 750 mmHg 44%
    11:00 +35°C° 0 mm 2 mps 750 mmHg 31%
    12:00 +36°C° 0 mm 2 mps 749 mmHg 27%
    13:00 +37°C° 0 mm 2 mps 748 mmHg 22%
    14:00 +37°C° 0 mm 1 mps 747 mmHg 18%
    15:00 +37°C° 0 mm 1 mps 746 mmHg 18%
    16:00 +36°C° 0 mm 1 mps 746 mmHg 18%
    17:00 +35°C° 0 mm 1 mps 746 mmHg 18%
    18:00 +34°C° 0 mm 2 mps 747 mmHg 31%
    19:00 +30°C° 0 mm 3 mps 747 mmHg 44%
    20:00 +27°C° 0 mm 3 mps 748 mmHg 58%
    21:00 +26°C° 0 mm 3 mps 748 mmHg 65%
    22:00 +26°C° 0 mm 3 mps 748 mmHg 72%
    23:00 +25°C° 0 mm 3 mps 748 mmHg 80%

    Day after tomorrow, 28 February, Friday

    Time Temperature Precipitation Wind Pressure Humidity
    00:00 +24°C° 0 mm 2 mps 748 mmHg 84%
    01:00 +24°C° 0 mm 2 mps 748 mmHg 87%
    02:00 +23°C° 0 mm 1 mps 747 mmHg 91%
    03:00 +23°C° 0 mm 1 mps 747 mmHg 92%
    04:00 +23°C° 0 mm 2 mps 747 mmHg 94%
    05:00 +21°C° 0 mm 2 mps 747 mmHg 95%
    06:00 +24°C° 0 mm 2 mps 748 mmHg 87%
    07:00 +25°C° 0 mm 3 mps 748 mmHg 80%
    08:00 +27°C° 0 mm 3 mps 749 mmHg 72%
    09:00 +29°C° 0 mm 3 mps 749 mmHg 61%
    10:00 +31°C° 0 mm 3 mps 749 mmHg 51%
    11:00 +34°C° 0 mm 3 mps 749 mmHg 40%
    12:00 +35°C° 0 mm 3 mps 748 mmHg 35%
    13:00 +36°C° 0 mm 2 mps 747 mmHg 31%
    14:00 +37°C° 0 mm 2 mps 745 mmHg 26%
    15:00 +36°C° 0 mm 2 mps 745 mmHg 28%
    16:00 +36°C° 0 mm 3 mps 745 mmHg 29%
    17:00 +35°C° 0 mm 3 mps 745 mmHg 31%
    18:00 +33°C° 0 mm 3 mps 746 mmHg 41%
    19:00 +30°C° 0 mm 4 mps 746 mmHg 51%
    20:00 +28°C° 0 mm 4 mps 747 mmHg 61%
    21:00 +27°C° 0 mm 4 mps 747 mmHg 66%
    22:00 +26°C° 0 mm 3 mps 747 mmHg 71%
    23:00 +25°C° 0 mm 3 mps 748 mmHg 76%

    29 February, Saturday

    Time Temperature Precipitation Wind Pressure Humidity
    00:00 +24°C° 0 mm 3 mps 747 mmHg 79%
    01:00 +24°C° 0 mm 2 mps 747 mmHg 83%
    02:00 +23°C° 0 mm 2 mps 746 mmHg 86%
    03:00 +23°C° 0 mm 2 mps 746 mmHg 88%
    04:00 +21°C° 0 mm 2 mps 746 mmHg 91%
    05:00 +21°C° 0 mm 2 mps 746 mmHg 93%
    06:00 +24°C° 0 mm 2 mps 747 mmHg 86%
    07:00 +25°C° 0 mm 3 mps 748 mmHg 79%
    08:00 +27°C° 0 mm 4 mps 748 mmHg 72%
    09:00 +29°C° 0 mm 4 mps 748 mmHg 61%
    10:00 +32°C° 0 mm 4 mps 748 mmHg 51%
    11:00 +34°C° 0 mm 4 mps 748 mmHg 41%
    12:00 +35°C° 0 mm 3 mps 747 mmHg 36%
    13:00 +37°C° 0 mm 2 mps 746 mmHg 31%
    14:00 +38°C° 0 mm 2 mps 745 mmHg 26%
    15:00 +37°C° 0 mm 2 mps 745 mmHg 26%
    16:00 +36°C° 0 mm 1 mps 745 mmHg 26%
    17:00 +35°C° 0 mm 1 mps 745 mmHg 27%
    18:00 +34°C° 0 mm 2 mps 745 mmHg 36%
    19:00 +30°C° 0 mm 3 mps 746 mmHg 46%
    20:00 +28°C° 0 mm 4 mps 747 mmHg 55%
    21:00 +27°C° 0 mm 3 mps 747 mmHg 60%
    22:00 +26°C° 0 mm 3 mps 747 mmHg 66%
    23:00 +25°C° 0 mm 2 mps 747 mmHg 71%

    1 March, Sunday

    Time Temperature Precipitation Wind Pressure Humidity
    00:00 +24°C° 0 mm 2 mps 747 mmHg 74%
    01:00 +24°C° 0 mm 2 mps 746 mmHg 77%
    02:00 +23°C° 0 mm 2 mps 746 mmHg 79%
    03:00 +23°C° 0 mm 2 mps 746 mmHg 82%
    04:00 +21°C° 0 mm 2 mps 746 mmHg 84%
    05:00 +21°C° 0 mm 2 mps 746 mmHg 86%
    06:00 +24°C° 0 mm 3 mps 747 mmHg 78%
    07:00 +25°C° 0 mm 3 mps 748 mmHg 71%
    08:00 +27°C° 0 mm 4 mps 749 mmHg 64%
    09:00 +29°C° 0 mm 4 mps 749 mmHg 54%
    10:00 +33°C° 0 mm 4 mps 749 mmHg 45%
    11:00 +35°C° 0 mm 4 mps 748 mmHg 36%
    12:00 +36°C° 0 mm 3 mps 747 mmHg 32%
    13:00 +38°C° 0 mm 2 mps 746 mmHg 29%
    14:00 +39°C° 0 mm 1 mps 745 mmHg 25%
    15:00 +37°C° 0 mm 1 mps 745 mmHg 25%
    16:00 +37°C° 0 mm 1 mps 745 mmHg 26%
    17:00 +36°C° 0 mm 1 mps 745 mmHg 26%
    18:00 +34°C° 0 mm 2 mps 746 mmHg 35%
    19:00 +31°C° 0 mm 3 mps 746 mmHg 44%
    20:00 +28°C° 0 mm 4 mps 747 mmHg 53%
    21:00 +27°C° 0 mm 4 mps 747 mmHg 58%
    22:00 +26°C° 0 mm 3 mps 747 mmHg 64%
    23:00 +25°C° 0 mm 3 mps 747 mmHg 69%

    2 March, Monday

    Time Temperature Precipitation Wind Pressure Humidity
    00:00 +24°C° 0 mm 3 mps 747 mmHg 72%
    01:00 +24°C° 0 mm 2 mps 746 mmHg 75%
    02:00 +23°C° 0 mm 2 mps 746 mmHg 77%
    03:00 +23°C° 0 mm 2 mps 746 mmHg 79%
    04:00 +23°C° 0 mm 1 mps 746 mmHg 82%
    05:00 +22°C° 0 mm 1 mps 746 mmHg 84%
    06:00 +24°C° 0 mm 2 mps 747 mmHg 77%
    07:00 +26°C° 0 mm 2 mps 748 mmHg 71%
    08:00 +27°C° 0 mm 3 mps 749 mmHg 64%
    09:00 +29°C° 0 mm 3 mps 749 mmHg 55%
    10:00 +33°C° 0 mm 3 mps 748 mmHg 46%
    11:00 +35°C° 0 mm 3 mps 748 mmHg 37%
    12:00 +36°C° 0 mm 3 mps 747 mmHg 33%
    13:00 +38°C° 0 mm 2 mps 746 mmHg 29%
    14:00 +39°C° 0 mm 1 mps 745 mmHg 25%
    15:00 +39°C° 0 mm 1 mps 745 mmHg 25%
    16:00 +37°C° 0 mm 1 mps 745 mmHg 25%
    17:00 +36°C° 0 mm 1 mps 745 mmHg 26%
    18:00 +35°C° 0 mm 2 mps 746 mmHg 32%
    19:00 +33°C° 0 mm 3 mps 746 mmHg 39%
    20:00 +30°C° 0 mm 4 mps 747 mmHg 46%
    21:00 +28°C° 0 mm 3 mps 747 mmHg 52%
    22:00 +27°C° 0 mm 3 mps 747 mmHg 59%
    23:00 +25°C° 0 mm 3 mps 747 mmHg 66%
    Show more